Location: Newark
(42.8481°N, 0.4872°E)
Time: 18:01:36
(UTC+00:00)

Vanguard 2 - Pass Details

Date: 29 October 2020
Orbit: 554 x 2937 km, 32.9° (Epoch: 27 November)

Event Time Altitude Azimuth Distance (km) Brightness Sun altitude
Rises 00:25:17 0° 276° (W) 6,518 12.2 -59.2°
Enters shadow 00:25:58 - 275° (W) 6,382 12.1 -59.2°
Reaches altitude 10° 00:29:45 10° 270° (W) 5,654 - -58.9°
Maximum altitude 00:45:37 42° 208° (SSW) 3,660 - -57.6°
Drops below altitude 10° 00:59:40 10° 144° (SE) 5,013 - -56.2°
Sets 01:03:22 0° 138° (SE) 5,745 - -55.8°
